When you browse on this site, cookies collect data to enhance your experience and personalize the content and advertising you see.
Visit our Privacy Policy to learn more. By continuing to use the site, you agree to this use of cookies and data.
  • In Österreich
  • Länderverzeichnis
  • Für 7 Tage
  • Wassertemperatur
  • Wetterkarte
  • News
  • Widgets
  • user-avatar
    Anmelden

    Stündliche Wetter Nocaima

    Heute, 23 September, Montag

    Zeit Temperatur Niederschläge Wind Luftdruck Luftfeuchtigkeit
    00:00 +20°C° 0.6 mm 1 m/S 671 mmHg 90%
    01:00 +20°C° 0 mm 1 m/S 671 mmHg 91%
    02:00 +20°C° 1 mm 1 m/S 671 mmHg 91%
    03:00 +20°C° 1 mm 1 m/S 671 mmHg 91%
    04:00 +20°C° 1 mm 1 m/S 671 mmHg 91%
    05:00 +20°C° 0.3 mm 1 m/S 672 mmHg 89%
    06:00 +21°C° 0.3 mm 1 m/S 672 mmHg 88%
    07:00 +21°C° 0.3 mm 1 m/S 672 mmHg 86%
    08:00 +23°C° 0.2 mm 1 m/S 673 mmHg 80%
    09:00 +25°C° 0.2 mm 1 m/S 673 mmHg 74%
    10:00 +27°C° 0.2 mm 1 m/S 673 mmHg 67%
    11:00 +28°C° 0.5 mm 1 m/S 673 mmHg 67%
    12:00 +28°C° 0.5 mm 1 m/S 672 mmHg 67%
    13:00 +29°C° 0.5 mm 2 m/S 671 mmHg 67%
    14:00 +29°C° 0.8 mm 1 m/S 671 mmHg 67%
    15:00 +28°C° 0.8 mm 1 m/S 670 mmHg 67%
    16:00 +28°C° 0.8 mm 1 m/S 670 mmHg 67%
    17:00 +27°C° 0.7 mm 1 m/S 670 mmHg 73%
    18:00 +25°C° 0.7 mm 1 m/S 670 mmHg 78%
    19:00 +23°C° 0.7 mm 1 m/S 670 mmHg 83%
    20:00 +23°C° 0.5 mm 1 m/S 671 mmHg 83%
    21:00 +23°C° 0.5 mm 1 m/S 671 mmHg 84%
    22:00 +23°C° 0.5 mm 1 m/S 672 mmHg 84%
    23:00 +22°C° 0.2 mm 1 m/S 672 mmHg 85%

    Morgen, 24 September, Dienstag

    Zeit Temperatur Niederschläge Wind Luftdruck Luftfeuchtigkeit
    00:00 +22°C° 0.2 mm 1 m/S 671 mmHg 86%
    01:00 +22°C° 0.2 mm 1 m/S 671 mmHg 87%
    02:00 +21°C° 0.1 mm 1 m/S 671 mmHg 88%
    03:00 +21°C° 0.1 mm 1 m/S 671 mmHg 88%
    04:00 +21°C° 0.1 mm 1 m/S 671 mmHg 89%
    05:00 +21°C° 0 mm 1 m/S 671 mmHg 87%
    06:00 +22°C° 0 mm 1 m/S 672 mmHg 85%
    07:00 +20°C° 0 mm 0 m/S 672 mmHg 84%
    08:00 +24°C° 0.2 mm 1 m/S 673 mmHg 80%
    09:00 +25°C° 0.2 mm 1 m/S 673 mmHg 77%
    10:00 +26°C° 0.2 mm 1 m/S 674 mmHg 73%
    11:00 +27°C° 0.6 mm 1 m/S 673 mmHg 72%
    12:00 +27°C° 0.6 mm 1 m/S 672 mmHg 70%
    13:00 +28°C° 0.6 mm 1 m/S 671 mmHg 69%
    14:00 +28°C° 0.3 mm 1 m/S 671 mmHg 68%
    15:00 +28°C° 0.3 mm 1 m/S 670 mmHg 66%
    16:00 +28°C° 0.3 mm 1 m/S 670 mmHg 65%
    17:00 +26°C° 0.4 mm 1 m/S 670 mmHg 71%
    18:00 +24°C° 0.4 mm 1 m/S 670 mmHg 78%
    19:00 +23°C° 0.4 mm 1 m/S 670 mmHg 84%
    20:00 +22°C° 0.1 mm 1 m/S 671 mmHg 84%
    21:00 +22°C° 0.1 mm 1 m/S 671 mmHg 83%
    22:00 +22°C° 0.1 mm 1 m/S 672 mmHg 82%
    23:00 +22°C° 0.1 mm 1 m/S 672 mmHg 82%

    übermorgen, 25 September, Mittwoch

    Zeit Temperatur Niederschläge Wind Luftdruck Luftfeuchtigkeit
    00:00 +22°C° 0.1 mm 1 m/S 671 mmHg 82%
    01:00 +22°C° 0.1 mm 1 m/S 671 mmHg 82%
    02:00 +22°C° 0.2 mm 1 m/S 671 mmHg 82%
    03:00 +22°C° 0.2 mm 1 m/S 671 mmHg 83%
    04:00 +20°C° 0.2 mm 0 m/S 671 mmHg 83%
    05:00 +20°C° 0.2 mm 0 m/S 671 mmHg 83%
    06:00 +20°C° 0.2 mm 0 m/S 672 mmHg 82%
    07:00 +21°C° 0.2 mm 0 m/S 672 mmHg 81%
    08:00 +24°C° 0.2 mm 1 m/S 673 mmHg 77%
    09:00 +26°C° 0.2 mm 1 m/S 673 mmHg 73%
    10:00 +27°C° 0.2 mm 1 m/S 674 mmHg 69%
    11:00 +28°C° 0.8 mm 1 m/S 673 mmHg 67%
    12:00 +28°C° 0.8 mm 1 m/S 672 mmHg 66%
    13:00 +29°C° 0.8 mm 1 m/S 671 mmHg 65%
    14:00 +28°C° 0.9 mm 1 m/S 670 mmHg 66%
    15:00 +28°C° 0.9 mm 1 m/S 670 mmHg 68%
    16:00 +28°C° 0.9 mm 1 m/S 670 mmHg 69%
    17:00 +26°C° 1.8 mm 1 m/S 670 mmHg 77%
    18:00 +25°C° 1.8 mm 1 m/S 670 mmHg 85%
    19:00 +21°C° 1.8 mm 0 m/S 670 mmHg 93%
    20:00 +20°C° 1.5 mm 0 m/S 671 mmHg 93%
    21:00 +20°C° 1.5 mm 0 m/S 671 mmHg 94%
    22:00 +20°C° 1.5 mm 0 m/S 672 mmHg 94%
    23:00 +21°C° 0.2 mm 1 m/S 671 mmHg 94%

    26 September, Donnerstag

    Zeit Temperatur Niederschläge Wind Luftdruck Luftfeuchtigkeit
    00:00 +21°C° 0.2 mm 1 m/S 671 mmHg 93%
    01:00 +21°C° 0.2 mm 1 m/S 671 mmHg 92%
    02:00 +21°C° 0 mm 1 m/S 671 mmHg 92%
    03:00 +20°C° 0 mm 1 m/S 670 mmHg 91%
    04:00 +20°C° 0 mm 1 m/S 670 mmHg 90%
    05:00 +21°C° 0 mm 1 m/S 671 mmHg 89%
    06:00 +21°C° 0 mm 1 m/S 672 mmHg 87%
    07:00 +22°C° 0 mm 1 m/S 672 mmHg 85%
    08:00 +24°C° 0.1 mm 1 m/S 672 mmHg 78%
    09:00 +26°C° 0.1 mm 1 m/S 673 mmHg 72%
    10:00 +27°C° 0.1 mm 1 m/S 673 mmHg 65%
    11:00 +28°C° 1 mm 1 m/S 672 mmHg 68%
    12:00 +28°C° 1 mm 1 m/S 671 mmHg 71%
    13:00 +28°C° 1 mm 1 m/S 671 mmHg 74%
    14:00 +27°C° 1.3 mm 1 m/S 670 mmHg 76%
    15:00 +27°C° 1.3 mm 1 m/S 669 mmHg 78%
    16:00 +25°C° 1.3 mm 0 m/S 669 mmHg 80%
    17:00 +25°C° 0.7 mm 1 m/S 669 mmHg 83%
    18:00 +24°C° 0.7 mm 1 m/S 669 mmHg 86%
    19:00 +23°C° 0.7 mm 1 m/S 670 mmHg 89%
    20:00 +22°C° 0.7 mm 1 m/S 670 mmHg 89%
    21:00 +21°C° 0.7 mm 1 m/S 670 mmHg 90%
    22:00 +20°C° 0.7 mm 2 m/S 671 mmHg 91%
    23:00 +21°C° 0.5 mm 1 m/S 670 mmHg 90%

    27 September, Freitag

    Zeit Temperatur Niederschläge Wind Luftdruck Luftfeuchtigkeit
    00:00 +20°C° 0.5 mm 1 m/S 670 mmHg 89%
    01:00 +20°C° 0.5 mm 1 m/S 670 mmHg 89%
    02:00 +20°C° 0.1 mm 1 m/S 670 mmHg 88%
    03:00 +20°C° 0.1 mm 1 m/S 670 mmHg 88%
    04:00 +20°C° 0.1 mm 1 m/S 670 mmHg 88%
    05:00 +20°C° 0.1 mm 1 m/S 670 mmHg 86%
    06:00 +21°C° 0.1 mm 1 m/S 671 mmHg 84%
    07:00 +22°C° 0.1 mm 1 m/S 672 mmHg 82%
    08:00 +24°C° 0.3 mm 1 m/S 672 mmHg 78%
    09:00 +25°C° 0.3 mm 1 m/S 673 mmHg 74%
    10:00 +27°C° 0.3 mm 1 m/S 673 mmHg 70%
    11:00 +27°C° 0.9 mm 1 m/S 672 mmHg 72%
    12:00 +27°C° 0.9 mm 1 m/S 671 mmHg 74%
    13:00 +27°C° 0.9 mm 1 m/S 670 mmHg 76%
    14:00 +27°C° 1.2 mm 1 m/S 670 mmHg 77%
    15:00 +27°C° 1.2 mm 1 m/S 670 mmHg 78%
    16:00 +27°C° 1.2 mm 1 m/S 669 mmHg 79%
    17:00 +25°C° 1.2 mm 1 m/S 669 mmHg 83%
    18:00 +24°C° 1.2 mm 1 m/S 670 mmHg 88%
    19:00 +22°C° 1.2 mm 1 m/S 670 mmHg 93%
    20:00 +22°C° 0.9 mm 1 m/S 670 mmHg 92%
    21:00 +21°C° 0.9 mm 1 m/S 670 mmHg 92%
    22:00 +21°C° 0.9 mm 1 m/S 671 mmHg 91%
    23:00 +20°C° 0.5 mm 1 m/S 671 mmHg 91%

    28 September, Samstag

    Zeit Temperatur Niederschläge Wind Luftdruck Luftfeuchtigkeit
    00:00 +20°C° 0.5 mm 1 m/S 670 mmHg 91%
    01:00 +20°C° 0.5 mm 1 m/S 670 mmHg 91%
    02:00 +20°C° 0 mm 1 m/S 670 mmHg 91%
    03:00 +20°C° 0 mm 1 m/S 670 mmHg 91%
    04:00 +20°C° 0 mm 1 m/S 669 mmHg 91%
    05:00 +20°C° 0 mm 1 m/S 670 mmHg 89%
    06:00 +21°C° 0 mm 1 m/S 671 mmHg 87%
    07:00 +22°C° 0 mm 1 m/S 672 mmHg 85%
    08:00 +24°C° 0.1 mm 1 m/S 672 mmHg 77%
    09:00 +26°C° 0.1 mm 1 m/S 672 mmHg 69%
    10:00 +28°C° 0.1 mm 1 m/S 673 mmHg 61%
    11:00 +29°C° 0.4 mm 1 m/S 672 mmHg 62%
    12:00 +29°C° 0.4 mm 1 m/S 671 mmHg 63%
    13:00 +29°C° 0.4 mm 2 m/S 670 mmHg 64%
    14:00 +28°C° 1 mm 1 m/S 669 mmHg 69%
    15:00 +28°C° 1 mm 1 m/S 669 mmHg 75%
    16:00 +25°C° 1 mm 0 m/S 668 mmHg 81%
    17:00 +23°C° 1.7 mm 0 m/S 669 mmHg 85%
    18:00 +22°C° 1.7 mm 0 m/S 669 mmHg 88%
    19:00 +21°C° 1.7 mm 0 m/S 669 mmHg 92%
    20:00 +22°C° 1 mm 1 m/S 669 mmHg 93%
    21:00 +22°C° 1 mm 1 m/S 670 mmHg 94%
    22:00 +22°C° 1 mm 1 m/S 670 mmHg 94%
    23:00 +21°C° 0.2 mm 1 m/S 670 mmHg 94%
    Mehr zeigen